Terminal Aerodrome Forecast
Issued by NWS

Home | Current Version | Previous Version | Text Only | Print | Product List | Glossary On
Versions: 1 2 3 4 5 6 7 8 9 10 11 12 13 14 15
000
FTUS43 KSGF 251100
TAFJLN
TAF
KJLN 251120Z 2512/2612 18009KT P6SM SKC
     FM251500 20014G20KT P6SM SCT250
     FM260000 18013KT P6SM SKC=

USA.gov is the U.S. government's official web portal to all federal, state and local government web resources and services.